Regional Weather Roundup
Issued by NWS

Home | Current Version | Previous Version | Text Only | Print | Product List | Glossary Off
Versions: 1 2 3 4 5 6 7 8 9 10 11 12 13 14 15 16 17 18 19 20 21 22 23 24 25 26 27 28 29 30 31 32 33 34 35 36 37 38 39 40 41 42 43 44 45 46 47 48 49 50

000
ASUS43 KMPX 290210
RWRMN
WEATHER ROUNDUP FOR MINNESOTA
NATIONAL WEATHER SERVICE TWIN CITIES/CHANHASSEN MN
900 PM CDT THU AUG 28 2014


NOTE: "FAIR" INDICATES FEW OR NO CLOUDS BELOW 12,000 FEET WITH NO
SIGNIFICANT WEATHER AND/OR OBSTRUCTIONS TO VISIBILITY. N/A MEANS
CURRENT SKY AND/OR WEATHER CONDITIONS ARE NOT AVAILABLE.

MNZ060>063-068>070-290300-
   Twin Cities Metro

CITY           SKY/WX    TMP DP  RH WIND       PRES   REMARKS
TWIN CITIES    CLOUDY    67  64  90 E13       29.93F
ST PAUL        CLOUDY    66  65  96 SE9       29.94F FOG
CRYSTAL        CLOUDY    69  63  81 E8        29.92F
BLAINE         CLOUDY    70  66  88 SE8       29.94F
LAKEVILLE      CLOUDY    64  63  94 E9        29.93F
EDEN PRAIRIE   CLOUDY    67  64  90 E10       29.91F
SOUTH ST PAUL  CLOUDY    67  64  92 SE8       29.94S
LAKE ELMO      CLOUDY    66  64  94 SE9       29.96S
$$
MNZ001>005-007-008-013>017-022>024-027-028-290300-
   Northwest Minnesota

CITY           SKY/WX    TMP DP  RH WIND       PRES   REMARKS
BEMIDJI        CLOUDY    65  61  85 S7        29.93S
HALLOCK        MOCLDY    70  64  83 S14       29.83S
ROSEAU         MOCLDY    70  63  78 S8        29.87F
WARROAD        CLOUDY    68  64  88 S5        29.88F
THIEF RVR FALL CLOUDY    66  61  82 S7        29.89S
CROOKSTON      CLOUDY    70  63  78 S9        29.88S
FOSSTON        CLOUDY    64  57  77 SE12      29.91S
DETROIT LAKES  DRIZZLE   64  63  94 SE6       29.93R
MOORHEAD       DRIZZLE   66  66 100 CALM      29.89S
PARK RAPIDS    LGT RAIN  65  63  93 SE8       29.93F
MAHNOMEN       MOCLDY    65  59  82 S6        29.90S
$$
MNZ006-009>011-018-025>026-290300-
   North Central Minnesota

CITY           SKY/WX    TMP DP  RH WIND       PRES   REMARKS
BAUDETTE       CLOUDY    67  62  84 S3        29.90S
FLAG ISLAND    LGT RAIN  68  64  88 S12       29.87S
INTL FALLS     CLOUDY    66  59  78 CALM      29.93S
WASKISH        CLOUDY    66  63  88 CALM      29.91F
BIG FORK       CLOUDY    64  61  88 S6        29.95F
LONGVILLE      LGT RAIN  63  63 100 CALM      29.94F
GRAND RAPIDS   CLOUDY    64  57  77 SE6       29.97S
CRANE LAKE     CLOUDY    64  55  72 SE3       29.97R
ORR            CLOUDY    64  55  72 S7        29.94S
COOK           CLOUDY    66  57  72 SE3       29.97S
WALKER         LGT RAIN  64  61  90 CALM      29.93F
$$
MNZ012-019>021-037-290300-
   Northeast Minnesota

CITY           SKY/WX    TMP DP  RH WIND       PRES   REMARKS
DULUTH         CLOUDY    61  53  75 E8        30.00S
ELY            CLOUDY    63  52  67 S10G18    29.99S
HIBBING        CLOUDY    65  57  75 SE7       29.98S
EVELETH        CLOUDY    63  54  72 SE6       30.00S
DULUTH HARBOR  CLOUDY    63  61  94 NE14      29.99F
TWO HARBORS    CLOUDY    59  52  77 NE5       29.99F
SILVER BAY     CLOUDY    55  55 100 CALM      30.00F
GRAND MARAIS     N/A     58  54  86 CALM      30.02R
G MARAIS ARPRT MOCLDY    55  48  76 CALM      30.05S
$$
MNZ029>031-032-039>041-046>048-054>057-064-290300-
   West Central Minnesota

CITY           SKY/WX    TMP DP  RH WIND       PRES   REMARKS
FERGUS FALLS   CLOUDY    64  64 100 SE7       29.90S FOG
WHEATON        CLOUDY    63  63 100 E6        29.89F
MORRIS         DRIZZLE   66  64  94 E7        29.88S
ALEXANDRIA     LGT RAIN  64  63  96 SE12      29.92F FOG
ELBOW LAKE     LGT RAIN  64  64  97 E8        29.89F
WADENA         DRIZZLE   63  63 100 SE9       29.93S
GLENWOOD       DRIZZLE   64  63  94 E10       29.91F
APPLETON       CLOUDY    66  64  94 SE8       29.87S
BENSON         CLOUDY    66  64  94 SE10      29.88S FOG
ORTONVILLE     CLOUDY    64  63  94 E5        29.87F FOG
MADISON        MOCLDY    70  66  88 E8        29.86F FOG
WILLMAR        CLOUDY    66  64  94 SE10G16   29.90F
$$
MNZ033>034-036-042>043-049>051-058-059-290300-
   Central Minnesota

CITY           SKY/WX    TMP DP  RH WIND       PRES   REMARKS
ST CLOUD       CLOUDY    68  64  87 E7        29.92F
SAUK CENTRE    DRIZZLE   64  63  97 E8        29.92F
PAYNESVILLE    RAIN      64  63  99 NE9       29.91F
AITKIN         MIX PCPN  66  61  82 SE5       29.95S
PINE RIVER     DRIZZLE   64  64 100 SE6       29.98S
BRAINERD       LGT RAIN  64  62  93 SE5       29.96S
STAPLES        RAIN      63  63 100 CALM      29.93S
LONG PRAIRIE   DRIZZLE   63  63 100 E8        29.93F
LITTLE FALLS   DRIZZLE   63  61  94 E7        29.94S
LITCHFIELD     CLOUDY    68  66  94 SE14      29.92S
BUFFALO        CLOUDY    67  62  85 E8        29.93F
MAPLE LAKE     CLOUDY    68  65  89 E8        29.93F
$$
MNZ037-044-045-052-053-290300-
   East Central Minnesota

CITY           SKY/WX    TMP DP  RH WIND       PRES   REMARKS
PRINCETON      CLOUDY    66  64  94 E5        29.95S
MORA           CLOUDY    64  63  94 SE5       29.98S
CAMBRIDGE      CLOUDY    68  59  73 E6        29.94S
RUSH CITY      CLOUDY    64  61  88 E5        29.97F
MOOSE LAKE     LGT RAIN  63  57  82 CALM      29.97S
HINCKLEY       DRIZZLE   64  63  94 E5        29.98R
CLOQUET        CLOUDY    61  54  77 E5        29.99S
MCGREGOR       CLOUDY    64  61  88 SE7       29.97S
$$
MNZ071>073-080-081-089-090-097-098-290300-
   Southwest Minnesota

CITY           SKY/WX    TMP DP  RH WIND       PRES   REMARKS
MONTEVIDEO     CLOUDY    66  66 100 SE9       29.88S FOG
GRANITE FALLS  CLOUDY    67  67  99 E6        29.89S FOG
CANBY          CLOUDY    67  66  96 E6        29.87S FOG
MARSHALL       CLOUDY    68  64  88 E12       29.86S
REDWOOD FALLS  CLOUDY    67  66  97 SE9       29.88S
OLIVIA         CLOUDY    68  64  88 SE8       29.89S
PIPESTONE      CLOUDY    68  66  94 SE7       29.87R FOG
WINDOM         LGT RAIN  66  64  94 E7        29.88S
WORTHINGTON    CLOUDY    68  66  94 E9        29.88R
JACKSON        CLOUDY    66  63  88 E7        29.88F FOG
TRACY          CLOUDY    69  67  95 CALM      29.87F
SLAYTON        CLOUDY    67  67  99 CALM      29.88F FOG
$$
MNZ065>067-074>077-082>085-091>093-290300-
   South Central Minnesota

CITY           SKY/WX    TMP DP  RH WIND       PRES   REMARKS
MANKATO        CLOUDY    66  61  82 E14       29.90S
NEW ULM        CLOUDY    66  66 100 E8        29.89S
ST JAMES       LGT RAIN  66  64  94 E7        29.89S
FAIRMONT       CLOUDY    64  63  94 E6        29.88S
GLENCOE        CLOUDY    67  62  84 E9        29.91S
FARIBAULT      CLOUDY    68  63  83 E6        29.92F
OWATONNA       HVY RAIN  66  63  88 E9        29.92S
WASECA         LGT RAIN  63  59  88 E9        29.93S
ALBERT LEA     CLOUDY    66  64  94 E6        29.90F FOG
$$
MNZ078>079-086>088-094>096-290300-
   Southeast Minnesota

CITY           SKY/WX    TMP DP  RH WIND       PRES   REMARKS
ROCHESTER      RAIN      65  63  93 E9        29.95F FOG
RED WING       LGT RAIN  66  64  94 SE10      29.94S
STANTON        CLOUDY    66  64  90 E9        29.92F
DODGE CENTER   LGT RAIN  64  64 100 E9        29.93F
WINONA         DRIZZLE   66  64  94 E7        29.96S
AUSTIN         CLOUDY    64  64 100 CALM      29.92S
PRESTON        CLOUDY    65  65 100 CALM      29.95S FOG
$$
ABBREVIATIONS USED IN REMARKS
   TC - TEMPERATURES IN CELSIUS
  WCI - WIND CHILL INDEX
   HX - HEAT INDEX
  VSB - VISIBILITY
$$


USA.gov is the U.S. government's official web portal to all federal, state and local government web resources and services.